COSMOS 1275 DEB, 39938

Orbit data source: Space-Track

COSMOS 1275 DEB, 39938 is space debris in LEO originally from a launch on Thu, 04 Jun 1981 UTC launched from the Plesetsk Missile And Space Complex (PKMTR). Debris objects in space refer to the collection of defunct objects orbiting the Earth. Examples of debris include non-operational satellites, rocket bodies, and fragments generated from explosions, collisions, or faulty payload assembly.

Loading next visibility...
Identifier
39938, 1981-053MY
Orbit
LEO
Country
Flag of CISCIS
Related business
Manufacturer
Unknown
Mission
Spacecraft
Bus & Motor
Unknown
Mass
Unknown
Launch date (UTC)
1981-06-04 (45 years ago)
Launch vehicle
Unknown
Launch site
Plesetsk Missile And Space Complex (PKMTR)
Object type
Payload
Rocket body
Debris
Shape & HBR
Unknown shape, 0.1 m
Radar Cross Section
Small (<0.1 m²)

Expand to show TLE details & history
Last TLE update: 4 days ago

TLE from 4 days ago
0 COSMOS 1275 DEB
1 39938U 81053MY  26259.40567535  .00000715  00000-0  75771-3 0  9991
2 39938  83.0684  48.4384 0132614  77.8810 283.7165 13.69236913611724
Epoch: 2026-09-16T09:44Z
TLE epoch observation values (Epoch: 2026-09-16T09:44:10.350Z)
Latitude
0.00002°
Longitude
-92.96246°
Altitude
983.225 km
Speed
7.371 km/s
True Right ascension
03h 13m 45s
True Declination
0° 00' 00"
Sunlit
Object was in full shadow at epoch
Visualization orbit readout
Latitude
Unknown
Longitude
Unknown
Altitude
Unknown
Speed
Unknown
Apparent Right ascension
Unknown
Apparent Declination
Unknown
Sunlit
N/A
Visualization observer readout
Local Sidereal Time
06:44:36
Azimuth
Unknown
Elevation
Unknown
Doppler factor
Unknown
Orbital elements
Apogee altitude
1,097.3 km
Perigee altitude
901.626 km
Semi-major axis
7,377.6 km
Eccentricity
0.01326
Inclination
83.0684°
RAAN
48.4384°
Arg. of periapsis
77.881°
True anomaly
282.23453°
Mean anomaly
283.7165°
Eccentric anomaly
282.97608°
Mean motion
3.42508 °/min
Orbital period
105.11 mins
BSTAR
0.00075771
Loading maneuver chart data...
Computing Atmospheric mass density...

Documentation

Showing up to 5 results
|